This is the latest recevied weather packets stored in our database for station/object OE3UKW. If no packets are shown the sender has not sent any weather packets the latest 1 day(s).
| Time | Temp. | Humidity | Pressure | Rain* | Wind** | Luminosity | Snow |
|---|---|---|---|---|---|---|---|
| 1836274444 | 10.56° C | 73% | 1025.6 hPa | 0 mm | 0 m/s | 0 W/m² | - |
| 1836274294 | 10.56° C | 73% | 1025.4 hPa | 0 mm | 0 m/s | 0 W/m² | - |
| 1778023871 | 13.33° C | 59% | 1007.8 hPa | 0 mm | 0 m/s | 0 W/m² | - |
| 1778023271 | 13.33° C | 59% | 1007.7 hPa | 0 mm | 0.89 m/s, 155° | 0 W/m² | - |
| 1778022671 | 13.89° C | 57% | 1007.7 hPa | 0 mm | 0.45 m/s, 144° | 0 W/m² | - |
| 1778022071 | 13.89° C | 57% | 1007.5 hPa | 0 mm | 0.89 m/s, 144° | 0 W/m² | - |
| 1778021471 | 14.44° C | 56% | 1007.5 hPa | 0 mm | 1.34 m/s, 157° | 0 W/m² | - |
| 1778020871 | 14.44° C | 55% | 1007.3 hPa | 0 mm | 1.34 m/s, 146° | 0 W/m² | - |
| 1778020271 | 15° C | 55% | 1007.3 hPa | 0 mm | 1.79 m/s, 121° | 0 W/m² | - |
| 1778019671 | 15° C | 54% | 1007 hPa | 0 mm | 2.24 m/s, 123° | 0 W/m² | - |
| 1778019071 | 15.56° C | 54% | 1007.1 hPa | 0 mm | 2.24 m/s, 169° | 0 W/m² | - |
| 1778018471 | 15.56° C | 54% | 1007 hPa | 0 mm | 3.13 m/s, 167° | 0 W/m² | - |
| 1778017871 | 15.56° C | 53% | 1006.9 hPa | 0 mm | 3.13 m/s, 147° | 0 W/m² | - |
| 1778017271 | 15.56° C | 52% | 1006.8 hPa | 0 mm | 3.58 m/s, 156° | 0 W/m² | - |
| 1778016671 | 16.11° C | 51% | 1006.8 hPa | 0 mm | 3.58 m/s, 136° | 0 W/m² | - |
| 1778016071 | 16.11° C | 51% | 1006.9 hPa | 0 mm | 4.47 m/s, 162° | 0 W/m² | - |
| 1778015471 | 16.67° C | 50% | 1006.8 hPa | 0 mm | 3.58 m/s, 142° | 0 W/m² | - |
| 1778014871 | 16.67° C | 50% | 1006.9 hPa | 0 mm | 4.02 m/s, 144° | 0 W/m² | - |
| 1778014271 | 16.67° C | 49% | 1006.7 hPa | 0 mm | 4.02 m/s, 140° | 0 W/m² | - |
| 1778013671 | 16.67° C | 49% | 1006.7 hPa | 0 mm | 4.47 m/s, 140° | 0 W/m² | - |
| 1778013071 | 17.22° C | 49% | 1006.5 hPa | 0 mm | 3.13 m/s, 153° | 0 W/m² | - |
| 1778012471 | 17.22° C | 48% | 1006.6 hPa | 0 mm | 4.47 m/s, 160° | 0 W/m² | - |
| 1778011871 | 17.22° C | 48% | 1006.5 hPa | 0 mm | 4.92 m/s, 148° | 0 W/m² | - |
| 1778011271 | 17.22° C | 47% | 1006.4 hPa | 0 mm | 5.36 m/s, 148° | 0 W/m² | - |
| 1778010671 | 17.78° C | 47% | 1006.4 hPa | 0 mm | 4.02 m/s, 153° | 0 W/m² | - |
* Rain latest hour (hover to see other rain measurements)
** Current wind speed in m/s (hover to see current wind gust speed)